Location: UBC Liquid-Mirror Observatory
(49.2876°N, 122.5728°W)
Time: 22:03:36
(UTC-07:00)

Daily predictions for brighter satellites

Satellite Brightness Start Highest point End
(mag) Time Altitude Azimuth Time Altitude Azimuth Time Altitude Azimuth
Meteor 1-11 Rocket 3.9 20:32:53 10° SSW 20:38:30 82° WNW 20:44:04 10° N
Cosmos 1975 4.3 20:37:58 10° SE 20:41:00 20° E 20:44:02 10° NE
Cosmos 1934 Rocket 4.1 20:35:41 10° S 20:41:38 57° E 20:47:44 10° NNE
NOSS 2-1 (D) 3.9 20:38:26 10° S 20:42:05 38° ESE 20:46:17 10° NE
NOSS 2-1 (C) 3.9 20:39:27 10° S 20:43:06 38° ESE 20:47:19 10° NE
Lacrosse 5 rocket 1.2 20:45:38 10° NW 20:49:26 68° NNE 20:53:03 10° ESE
Cosmos 1315 Rocket 3.4 20:49:36 10° SSW 20:53:35 63° WNW 20:57:38 10° N
Cosmos 1777 Rocket 4.5 20:49:21 10° NNW 20:54:33 64° WSW 20:59:45 10° S
Cosmos 1544 Rocket 3.5 20:50:39 10° S 20:55:00 73° E 20:59:26 10° NNE
Cosmos 2084 4.2 20:53:32 10° NNW 20:57:16 37° NE 21:01:02 11° ESE
Cosmos 220 Rocket 4.5 20:53:22 10° NNW 20:57:27 43° ENE 21:01:26 10° SE
EO 1 Delta rocket 3.8 20:52:54 10° NNE 20:57:32 73° E 21:02:27 10° S
NOSS 2-1 (E) 3.7 20:55:10 10° SSW 20:59:01 49° ESE 21:03:33 10° NE
ATLAS CENTAUR R/B 2.5 20:58:58 10° SW 21:03:58 61° NW 21:08:48 10° NE
Cosmos 2208 Rocket 4.2 21:01:06 10° S 21:06:15 53° ESE 21:11:31 10° NNE
Cosmos 2298 Rocket 4.4 21:04:12 10° NNW 21:09:23 49° ENE 21:14:01 13° SE
Cosmos 1939 Rocket 3.0 21:05:53 10° SSE 21:09:56 60° ENE 21:14:04 10° N
YAOGAN 6 3.9 21:09:19 14° ESE 21:11:42 25° ENE 21:14:46 10° N
Cosmos 1656 Rocket 4.5 21:06:46 10° SW 21:12:16 57° WNW 21:17:43 10° NNE
H-2A R/B 4.2 21:10:05 10° SSW 21:13:43 39° W 21:17:26 10° NNW
ALOS 3.7 21:09:45 10° SSW 21:14:07 39° W 21:18:31 10° NNW
Lacrosse 5 2.2 21:12:57 10° NW 21:17:59 58° NNE 21:22:12 14° ESE
Cosmos 2278 3.8 21:14:01 10° S 21:19:31 55° ESE 21:25:06 10° NE
USA 215 3.5 21:13:51 12° ESE 21:20:02 69° NNE 21:26:32 10° NW
Cosmos 1821 Rocket 4.4 21:14:04 10° SSW 21:20:09 67° WNW 21:26:14 10° N
BREEZE-M DEB (TANK) 1.5 21:19:05 10° W 21:21:07 67° SSW 21:23:22 18° ESE
Cosmos 1697 Rocket 3.7 21:17:56 10° SSE 21:22:20 24° ESE 21:26:44 10° NE
Cosmos 1605 Rocket 4.0 21:16:32 10° S 21:22:52 81° E 21:29:11 10° N
YAOGAN 11 4.4 21:19:15 10° S 21:23:46 72° WSW 21:28:15 10° NNW
H-2A R/B 3.6 21:21:51 12° E 21:24:39 18° ENE 21:28:00 10° NNE
Cosmos 1570 Rocket 4.0 21:20:39 10° SSW 21:25:57 81° ESE 21:31:16 10° NNE
SPOT 5 3.1 21:22:12 13° SE 21:26:36 55° ENE 21:31:20 10° N
Cosmos 2100 Rocket 4.4 21:22:10 10° SSE 21:28:00 42° E 21:33:48 10° NNE
Cosmos 2369 3.7 21:26:29 10° SSW 21:32:03 61° ESE 21:37:42 10° NE
Cosmos 1825 Rocket 4.2 21:28:47 10° N 21:32:59 38° ENE 21:35:28 21° SE
Cosmos 1346 Rocket 4.2 21:29:28 10° NNW 21:33:07 37° W 21:36:47 10° SSW
Envisat 3.0 21:28:46 10° SSE 21:33:51 88° WSW 21:38:58 10° NNW
RESURS DK-1 3.1 21:30:02 10° NNW 21:33:59 40° NE 21:36:17 21° ESE
Cosmos 1937 Rocket 3.8 21:29:57 10° NNW 21:35:07 53° ENE 21:38:37 20° SE
Cosmos 2150 Rocket 4.0 21:31:54 10° NNW 21:37:04 70° ENE 21:40:45 19° SE
CZ-4 DEB 4.2 21:36:35 10° SSW 21:39:31 35° W 21:42:28 10° NNW
NOSS 7 (D) 4.4 21:37:11 10° SSW 21:40:29 55° SE 21:43:53 10° NE
Cosmos 1953 Rocket 4.4 21:36:32 10° N 21:40:36 35° ENE 21:42:37 23° ESE
SPOT 1/Viking Rocket 4.0 21:39:37 20° SE 21:42:57 48° ENE 21:47:58 10° N
Cosmos 1980 Rocket 3.3 21:42:25 20° ESE 21:43:35 22° E 21:47:50 10° NE
deb Chang Zheng 4 3.6 21:41:46 10° NNE 21:46:12 60° ESE 21:50:35 10° S
Tiangong 1 2.5 21:46:47 10° SW 21:49:04 23° S 21:49:04 23° S
H-2A R/B 2.0 21:46:32 16° S 21:49:43 78° WSW 21:53:52 10° NNW
Cosmos 1626 Rocket 4.3 21:46:30 10° NNW 21:50:49 52° W 21:55:04 10° S
Cosmos 1666 4.3 21:52:58 19° E 21:52:58 19° E 21:55:20 10° NE
ARGOS 3.4 21:49:43 23° SE 21:52:55 53° ENE 21:58:10 10° N
Cosmos 990 Rocket 4.2 21:48:56 10° NNW 21:54:09 57° ENE 21:56:56 26° SE
PSLV R/B 3.0 21:54:24 42° SE 21:55:15 67° ENE 21:58:17 10° N
Iridium 4 Rocket 4.1 21:50:38 10° N 21:55:55 58° W 22:00:44 10° SSW
ASTEX 1 3.6 21:51:23 10° NNE 21:56:18 53° E 21:59:13 23° SSE
CZ-4 SHROUD 3.2 21:55:50 43° SE 21:56:35 61° ENE 21:59:38 10° N
Cosmos 972 Rocket 4.3 21:51:36 10° NNW 21:57:17 83° ENE 22:01:35 22° SSE
Cosmos 1758 Rocket 4.0 21:55:53 10° N 22:00:08 45° ENE 22:01:37 32° ESE
Cosmos 1500 3.1 21:59:56 15° S 22:02:58 86° WNW 22:06:46 10° N
CZ-4B R/B 4.0 21:59:27 10° NNE 22:03:49 35° E 22:04:55 31° SE
Cosmos 2227 Rocket 3.5 21:59:51 10° NW 22:04:57 35° WSW 22:10:00 10° S
Cosmos 1898 Rocket 3.8 22:02:18 10° NNW 22:07:36 67° WSW 22:10:58 22° S
SL-24 R/B - RUBIN 2 4.5 22:02:09 10° SSW 22:07:55 54° ESE 22:14:18 10° NE
Cosmos 2263 Rocket 3.7 22:05:25 10° NNW 22:09:56 24° NE 22:12:49 16° E
Cosmos 405 Rocket 4.4 22:08:15 10° NNE 22:11:01 19° ENE 22:11:08 19° ENE
Cosmos 1459 Rocket 3.8 22:05:25 11° S 22:11:10 78° E 22:17:17 10° NNE
Cosmos 1125 Rocket 4.3 22:08:48 10° N 22:13:40 38° ENE 22:15:34 28° E
Cosmos 2322 Rocket 4.0 22:15:27 14° E 22:15:27 14° E 22:17:03 10° ENE
Terra 2.6 22:14:41 30° E 22:16:02 36° ENE 22:20:24 10° N
MetOp-B 4.3 22:12:24 20° S 22:16:08 69° WSW 22:21:29 10° NNW
Nimbus 7 Rocket 4.5 22:10:20 10° NNE 22:16:25 87° WNW 22:22:29 10° SSW
Cosmos 2228 4.1 22:17:04 26° E 22:17:04 26° E 22:20:20 10° NNE
Cosmos 1340 2.5 22:13:01 10° N 22:16:50 86° ENE 22:17:52 47° SSE
Cosmos 1975 4.2 22:13:21 10° SW 22:17:15 41° WNW 22:21:11 10° N
Cosmos 2227 4.2 22:14:33 10° NNW 22:20:20 71° ENE 22:22:49 35° SE
Cosmos 2297 Rocket 3.4 22:15:53 10° NW 22:21:00 36° WSW 22:25:13 14° SSW
SL-08 RB Rocket 3.7 22:19:17 38° SSE 22:21:03 74° ENE 22:25:42 10° N
Cosmos 2058 Rocket 3.5 22:21:19 41° ESE 22:21:55 43° E 22:26:12 10° NNE
NOSS 7 (H) 4.3 22:18:50 10° SW 22:22:05 86° NW 22:25:49 10° NE
Cosmos 1763 Rocket 3.8 22:25:14 39° ESE 22:25:52 41° ESE 22:30:38 10° NE
Cosmos 1656 3.6 22:21:10 10° SSW 22:26:48 89° ESE 22:32:24 10° NNE
Lacrosse 5 rocket 2.8 22:25:27 10° W 22:28:17 21° SW 22:28:51 20° SW
IGS 5A 4.1 22:28:21 37° E 22:28:47 38° ENE 22:32:40 10° N
Cosmos 1802 Rocket 4.0 22:23:41 15° S 22:29:07 89° ESE 22:35:37 10° N
Cosmos 1743 2.8 22:29:48 35° SSW 22:31:20 75° W 22:35:17 10° N
Cosmos 468 Rocket 3.9 22:29:56 11° SSW 22:34:57 87° WNW 22:40:08 10° NNE
Cosmos 2084 4.3 22:33:04 10° WNW 22:36:47 36° SW 22:37:38 32° SSW
Cosmos 1606 Rocket 3.5 22:35:54 41° S 22:37:24 89° W 22:41:53 10° N
SL-08 R/B 4.4 22:35:01 28° S 22:38:29 76° E 22:44:41 10° NNE
Cosmos 1814 Rocket 4.0 22:36:45 17° SSW 22:41:00 89° ESE 22:46:21 10° NNE
Cosmos 1842 3.1 22:38:24 10° N 22:42:21 83° W 22:42:44 70° S
Cosmos 841 Rocket 3.6 22:44:08 50° SE 22:44:46 53° ESE 22:49:52 10° NNE
YAOGAN 6 4.3 22:43:48 22° SW 22:45:12 29° W 22:48:28 10° NNW
CARTOSAT-1 3.5 22:47:47 64° ESE 22:48:11 69° ENE 22:52:30 10° N
BREEZE-M TANK 4.4 22:47:12 10° W 22:52:25 21° SW 22:53:01 20° SW
Cosmos 2016 Rocket 4.1 22:48:24 21° SSW 22:52:36 74° W 22:58:49 10° N
GEOS 3 Rocket 3.4 22:55:04 10° NE 23:00:14 78° SE 23:03:18 25° SW
Cosmos 1707 4.1 22:56:48 10° N 22:59:38 29° NE 22:59:38 29° NE
Lacrosse 5 2.5 22:56:07 10° WNW 23:00:52 42° SW 23:01:23 40° SSW
Cosmos 1726 Rocket 4.0 23:01:16 42° SW 23:02:30 59° WNW 23:06:53 10° N
USA 215 3.6 23:01:12 39° S 23:03:13 51° SW 23:09:35 10° WNW
H-2A R/B 2.0 23:02:30 55° S 23:03:33 76° WSW 23:08:31 10° NNW
Meteor 2-5 Rocket 4.0 22:57:49 10° N 23:03:41 56° ENE 23:04:49 48° ESE
Cosmos 1697 Rocket 3.0 23:00:13 10° SW 23:05:50 65° WNW 23:11:29 10° NNE
SL-16 R/B 3.1 23:08:00 33° E 23:08:00 33° E 23:12:05 10° NE
Meteor 1-15 Rocket 4.2 23:06:00 46° S 23:07:54 86° E 23:13:50 10° NNE
Cosmos 2098 Rocket 4.2 23:04:30 27° SSW 23:08:39 76° W 23:14:39 10° N
Tsikada Rocket 4.3 23:05:28 10° NNW 23:11:50 65° W 23:14:24 37° SSW
RESURS DK-1 4.0 23:08:28 10° NW 23:11:52 25° WSW 23:12:13 24° WSW
Cosmos 540 Rocket 4.4 23:16:55 35° ENE 23:16:55 35° ENE 23:20:31 10° NE
Cosmos 372 Rocket 3.8 23:12:11 10° NNW 23:17:19 73° ENE 23:17:42 70° ESE
CZ-4C R/B 4.2 23:21:56 47° WSW 23:22:16 48° W 23:26:36 10° NNW
Cosmos 1844 Rocket 4.4 23:19:47 10° N 23:24:08 22° NE 23:26:20 18° ENE
GP-B 3.2 23:20:43 10° N 23:24:49 74° NNE 23:24:49 74° NNE
CZ-4B R/B 4.3 23:27:47 11° NE 23:27:47 11° NE 23:28:25 10° NE
Cosmos 1980 Rocket 2.4 23:24:05 29° SW 23:27:02 71° WNW 23:32:46 10° NNE
Cosmos 2360 Rocket 3.9 23:29:54 19° ENE 23:29:54 19° ENE 23:32:12 10° NE
Cosmos 1666 3.9 23:27:57 36° WNW 23:28:03 36° WNW 23:31:36 10° N
Okean 3 Rocket 4.1 23:31:43 10° N 23:35:21 52° NNE 23:35:21 52° NNE
Meteor 1-24 Rocket 3.9 23:32:50 10° N 23:38:51 63° ENE 23:39:26 60° ESE
Cosmos 1441 Rocket 4.5 23:40:46 10° N 23:43:27 38° NNE 23:43:27 38° NNE
Cosmos 405 Rocket 4.2 23:43:44 10° NNW 23:46:22 33° WNW 23:46:22 33° WNW
ALOS 2 3.9 23:49:56 33° NE 23:49:56 33° NE 23:53:14 10° N
Cosmos 332 Rocket 4.2 23:50:22 58° NE 23:50:22 58° NE 23:54:22 10° NNE
Terra 3.0 23:53:34 32° WSW 23:53:49 32° W 23:58:06 10° NNW
Cosmos 2228 4.4 23:53:55 32° W 23:54:14 32° WNW 23:58:07 10° N
Cosmos 371 Rocket 4.1 23:56:36 41° NE 23:56:36 41° NE 23:59:54 10° NNE
